Location: Boiro
(42.6475°N, 8.8834°W)
Time: 06:37:01
(UTC+01:00)

Vanguard 1 - Pass Details

Date: 03 December 2021
Orbit: 652 x 3830 km, 34.2° (Epoch: 21 January)

Event Time Altitude Azimuth Distance (km) Brightness Sun altitude
Rises 08:20:06 0° 283° (WNW) 7,546 - -5.4°
Exits shadow 08:22:07 - 281° (W) 7,114 13.8 -5.1°
Reaches altitude 10° 08:26:52 10° 273° (W) 6,090 13.5 -4.3°
Maximum altitude 08:39:38 26° 227° (SW) 3,777 12.9 -2.2°
Drops below altitude 10° 08:48:10 10° 176° (S) 3,938 13.7 -0.8°
Sets 08:51:26 0° 163° (SSE) 4,521 14.3 -0.3°
